Simultaneous Nadir Overpasses (SNOs) Predictions

Prediction of SNOs between LANDSAT-8 and NPP Satellite Orbit:

Table of predicted SNOs for the next 14.0 days since TLE Epoch: 11/28/2014
Index Date (LANDSAT-8) Time (LANDSAT-8) Lat,Lon (LANDSAT-8) SZA (LANDSAT-8 ) Date (NPP) Time (NPP) Lat,Lon (NPP) SZA (NPP ) Distance(km) Time Diff (sec)
1 11/30/2014 01:12:15 70.88, 159.49 92.37 11/30/2014 01:11:05 70.87, 159.54 92.36 2.10 70
2 11/30/2014 02:01:45 -70.76, -33.05 87.74 11/30/2014 02:01:47 -70.78, -32.99 87.73 2.72 2
3 11/30/2014 02:51:16 70.45, 134.12 91.95 11/30/2014 02:52:27 70.46, 134.83 91.96 26.64 71
4 12/02/2014 17:28:44 70.85, -84.68 92.75 12/02/2014 17:27:57 70.83, -84.63 92.74 2.56 47
5 12/02/2014 18:18:14 -70.73, 82.78 87.36 12/02/2014 18:18:39 -70.74, 82.84 87.35 2.24 25
6 12/05/2014 09:45:12 70.83, 31.18 93.10 12/05/2014 09:44:49 70.80, 31.19 93.07 3.32 23
7 12/05/2014 10:34:42 -70.71,-161.36 87.02 12/05/2014 10:35:31 -70.71,-161.34 87.02 1.18 49
8 12/08/2014 01:12:11 -70.93, -20.43 86.50 12/08/2014 01:10:58 -70.98, -20.66 86.44 10.59 73
9 12/08/2014 02:01:39 70.77, 146.98 93.35 12/08/2014 02:01:40 70.77, 147.00 93.36 0.87 1
10 12/08/2014 02:51:09 -70.66, -45.56 86.76 12/08/2014 02:52:22 -70.68, -45.54 86.74 2.77 73
11 12/10/2014 17:28:39 -70.83, 95.32 86.33 12/10/2014 17:27:48 -70.86, 95.31 86.30 3.35 51
12 12/10/2014 18:18:06 70.73, -97.20 93.57 12/10/2014 18:18:32 70.76, -97.21 93.60 3.42 26
